Other Public Products
Issued by NWS Grand Forks, ND

Home | Current Version | Previous Version | Text Only | Print | Product List | Glossary Off
Versions: 1 2 3 4 5 6 7 8 9 10 11 12 13 14 15 16 17 18 19 20 21 22 23 24 25 26 27 28 29 30 31 32 33 34 35 36 37 38 39 40 41 42 43 44 45 46 47 48 49 50

000
FPUS83 KFGF 261210
OPUFGF
PRAIRIE TO PINES WEATHER ROUNDUP
NATIONAL WEATHER SERVICE EASTERN NORTH DAKOTA/GRAND FORKS ND
700 AM CDT FRI MAY 26 2017

 **SATELLITE DATA USED TO AUGMENT SKY COVER AT AUTOMATED STATIONS**
 *****  WEATHER ACROSS EASTERN NORTH DAKOTA  *****

CITY           SKY/WX    TMP DP  RH WIND       PRES   REMARKS
GRAND FORKS    FAIR      53  47  79 W8        29.61R
6HR MIN TEMP:  45; 6HR MAX TEMP:  59;

GRAND FORKS AF FAIR      53  46  77 W9        29.61R
GRAND CITY NWS NOT AVBL
BUXTON         NOT AVBL
DEVILS LAKE    CLOUDY    51  47  86 W8        29.64
6HR MIN TEMP:  49; 6HR MAX TEMP:  55;

FARGO          FAIR      52  47  83 W9        29.65R
6HR MIN TEMP:  49; 6HR MAX TEMP:  61;

WAHPETON ARPT  FAIR      50  45  81 W8        29.68R
$$

 *****  WEATHER ACROSS CENTRAL AND WESTERN NORTH DAKOTA  *****

CITY           SKY/WX    TMP DP  RH WIND       PRES   REMARKS
JAMESTOWN      FAIR      50  44  80 W12       29.68R
6HR MIN TEMP:  48; 6HR MAX TEMP:  54;

BISMARCK       FAIR      50  42  74 W10       29.73R
6HR MIN TEMP:  48; 6HR MAX TEMP:  56;

MINOT          FAIR      51  44  77 W15       29.63R
6HR MIN TEMP:  50; 6HR MAX TEMP:  56;

MINOT AFB      FAIR      50  44  80 W16       29.62R
6HR MIN TEMP:  48; 6HR MAX TEMP:  53;

GARRISON         N/A     48  42  80 W10       29.68R
6HR MIN TEMP:  45; 6HR MAX TEMP:  52;

WILLISTON      CLOUDY    51  40  65 W15G23    29.71R
6HR MIN TEMP:  50; 6HR MAX TEMP:  51;

DICKINSON      CLOUDY    47  37  68 W22       29.74R
6HR MIN TEMP:  47; 6HR MAX TEMP:  50;

HETTINGER      FAIR      43  36  76 W14       29.82R
6HR MIN TEMP:  41; 6HR MAX TEMP:  48;

$$

 *****  OTHER OBSERVATIONS NORTHEAST NORTH DAKOTA  *****

CITY           SKY/WX    TMP DP  RH WIND       PRES   REMARKS
WALHALLA       NOT AVBL
LANGDON        PTSUNNY   48  48 100 SW13      29.61R
CAVALIER       FAIR      52  45  76 SW5       29.58S
GRAFTON        FAIR      50  48  93 SW8       29.62R
CANDO          NOT AVBL
FORT TOTTEN      N/A     49  45  87 W5        29.95S
ROLLA          FAIR      46  46 100 SW10      29.60R
RUGBY          NOT AVBL
 ***** THE ABOVE OBSERVATIONS ARE NON NWS ARE NOT QUALITY
        CONTROLLED AND MAY MIS-REPORT RAIN FOR SNOW...
$$

 *****  OTHER OBSERVATIONS SOUTHEAST NORTH DAKOTA *****

CITY           SKY/WX    TMP DP  RH WIND       PRES   REMARKS
COOPERSTOWN    FAIR      50  46  87 W14       29.66R
VALLEY CITY    FAIR      50  50 100 W12       29.68R
OAKES          NOT AVBL
GWINNER        SUNNY     50  46  87 MISG      29.69R
SHEYENNE NWR     N/A     48  46  92 W5        29.95S
BUFFALO        NOT AVBL
WYNDMERE         N/A     52  46  82 W10         N/A
 ***** THE ABOVE OBSERVATIONS ARE NON NWS ARE NOT QUALITY
       CONTROLLED AND MAY MIS-REPORT RAIN FOR SNOW...
$$

  *****  WEATHER ACROSS NORTHERN MINNESOTA  *****

CITY           SKY/WX    TMP DP  RH WIND       PRES   REMARKS
FLAG ISLAND    PTSUNNY   55  52  88 S9        29.59S
WARROAD        FAIR      55  52  88 S6        29.61R
ROSEAU         CLOUDY    55  50  82 S3        29.60S
HALLOCK        FAIR      50  46  87 CALM      29.58S
THF RVR FALLS  FAIR      53  50  89 SW6       29.63R
6HR MIN TEMP:  50; 6HR MAX TEMP:  58;

HALSTAD          N/A     50  46  88 W6          N/A
FOSSTON        FAIR      54  52  94 SW8       29.64R
BAUDETTE       PTSUNNY   56  51  84 S8        29.62S
6HR MIN TEMP:  56; 6HR MAX TEMP:  60;

WASKISH        PTSUNNY   57  52  82 S7        29.64R
CROOKSTON      FAIR      50  48  93 SW5       29.63R
$$
  *****  WEATHER ACROSS CENTRAL AND WEST MINNESOTA  *****

CITY           SKY/WX    TMP DP  RH WIND       PRES   REMARKS
BEMIDJI        FAIR      55  52  90 SE5       29.64S
PARK RAPIDS    FAIR      55  50  83 S7        29.65R
6HR MIN TEMP:  53; 6HR MAX TEMP:  60; 6HR PCP: TRACE;

WADENA         FAIR      52  50  93 CALM      29.65S
DETROIT LAKES  FAIR      54  52  94 SW3       29.66R
MOORHEAD       FAIR      52  46  82 SW6       29.66R
FERGUS FALLS   FAIR      52  52 100 W6        29.67R
ELBOW LAKE     FAIR      52  50  93 NW7       29.68R
6HR MIN TEMP:  49; 6HR MAX TEMP:  55;

MORRIS MN      FAIR      54  50  87 W10       29.67R
STAPLES        FAIR      54  52  94 S3        29.65F
WHEATON        FAIR      54  46  76 W6        29.70R
$$
  *****  WEATHER ELSEWHERE ACROSS MINNESOTA  *****

CITY           SKY/WX    TMP DP  RH WIND       PRES   REMARKS
DULUTH         CLOUDY    48  45  89 SE10      29.73R
6HR MIN TEMP:  48; 6HR MAX TEMP:  53; 6HR PCP:  0.02;

INTRNTL FALLS  CLOUDY    54  51  90 SE6       29.66R
6HR MIN TEMP:  53; 6HR MAX TEMP:  58; 6HR PCP:  0.01;

ELY            CLOUDY    52  48  87 SE6       29.73S
CLOQUET        CLOUDY    46  45  93 E6        29.72S
BRAINERD       CLOUDY    56  53  90 SE5       29.67R
6HR MIN TEMP:  52; 6HR MAX TEMP:  57;

HIBBING        PTSUNNY   51  51 100 SE3       29.69F
6HR MIN TEMP:  49; 6HR MAX TEMP:  51; 6HR PCP:  0.06;

ALEXANDRIA     FAIR      54  52  93 SW7       29.68R
6HR MIN TEMP:  51; 6HR MAX TEMP:  60;

SAINT CLOUD    FAIR      57  54  89 SE5       29.68R
6HR MIN TEMP:  55; 6HR MAX TEMP:  60;

MINNEAPOLIS    CLOUDY    62  51  67 SE9       29.71R
6HR MIN TEMP:  61; 6HR MAX TEMP:  62;

$$

  *****  WEATHER ACROSS SOUTH DAKOTA  *****

CITY           SKY/WX    TMP DP  RH WIND       PRES   REMARKS
SIOUX FALLS    CLOUDY    55  50  83 NW6       29.74R
6HR MIN TEMP:  50; 6HR MAX TEMP:  55;

BROOKINGS      FAIR      51  47  86 NW8       29.74R
WATERTOWN      FAIR      51  45  79 W10       29.73R
6HR MIN TEMP:  47; 6HR MAX TEMP:  53;

HURON          FAIR      51  45  79 NW14      29.77R
6HR MIN TEMP:  49; 6HR MAX TEMP:  53;

SISSETON         N/A     55  47  74 NW9       29.69R
ABERDEEN       FAIR      51  42  71 W10       29.74R
6HR MIN TEMP:  50; 6HR MAX TEMP:  58;

MITCHELL       FAIR      53  46  77 NW10      29.78R
PIERRE         FAIR      50  41  71 W16       29.81R
6HR MIN TEMP:  49; 6HR MAX TEMP:  57;

MOBRIDGE       FAIR      49  41  74 W10       29.75R
RAPID CITY     FAIR      45  33  63 CALM      29.89R
6HR MIN TEMP:  38; 6HR MAX TEMP:  50;

$$

  *****  SOME WEATHER IN NEARBY STATES *****

CITY           SKY/WX    TMP DP  RH WIND       PRES   REMARKS
GLASGOW MT     CLOUDY    44  37  76 W13       29.80R
6HR MIN TEMP:  41; 6HR MAX TEMP:  47;

GREAT FALLS MT FAIR      36  34  92 SW8       29.96R
6HR MIN TEMP:  35; 6HR MAX TEMP:  46;

CHEYENNE WY    FAIR      36  31  82 W8        30.00R
6HR MIN TEMP:  35; 6HR MAX TEMP:  48;

SCOTTSBLUFF NE FAIR      40  36  86 NW7       29.95R
6HR MIN TEMP:  39; 6HR MAX TEMP:  52;

OMAHA NE       CLOUDY    63  57  81 SE3       29.69R
6HR MIN TEMP:  63; 6HR MAX TEMP:  67; 6HR PCP: TRACE;

DES MOINES IA  CLOUDY    61  53  75 E6        29.69R
6HR MIN TEMP:  61; 6HR MAX TEMP:  65;

DAVENPORT IA   FAIR      60  55  83 SE9       29.79S
6HR MIN TEMP:  56; 6HR MAX TEMP:  61;

CHICAGO IL     PTSUNNY   58  52  80 CALM      29.84S
6HR MIN TEMP:  52; 6HR MAX TEMP:  58; 6HR PCP: TRACE;

EAU CLAIRE WI  CLOUDY    60  54  80 SE5       29.76R
6HR MIN TEMP:  58; 6HR MAX TEMP:  60; 6HR PCP:  0.01;

LA CROSSE WI   FAIR      59  56  89 E7        29.76S
6HR MIN TEMP:  57; 6HR MAX TEMP:  61; 6HR PCP:  0.03;

$$

  *****  SOME NATIONAL WEATHER *****

CITY           SKY/WX    TMP DP  RH WIND       PRES   REMARKS
LA GUARDIA NY  CLOUDY    58  55  90 W7        29.57R


USA.gov is the U.S. government's official web portal to all federal, state and local government web resources and services.